Starlink 31146

operational
NORAD ID: 58769 Int'l Des: 2024-011 Owner: SPXS Country: US Constellation: starlink
LEOCIRCULAR

Starlink 31146について

説明を読み込み中...

リアルタイム位置

3D地球を読み込み中...

次回通過

高度履歴

Altitude vs Time

uPlot chart will show altitude changes over time

軌道要素

1 58769U 24011E 25353.10686356 .00003664 00000-0 13576-3 0 9990
2 58769 53.1614 27.9117 0001284 72.5112 287.6029 15.30201470107934
Epoch: Dec 19, 2025 • Age: 14 hours

現在のステータス

高度 475.1 km
速度 7.63 km/s
衛星直下点 7.15°N, 51.33°E
打ち上げ日 Jan 14, 2024
運用期間 1.9 years
タイプ internet

技術仕様

分類 Payload
質量 730.00 kg
乾燥質量 700.00 kg
総質量 730.00 kg
長さ 0.30 m
直径 4.10 m
スパン 29.00 m
形状 Box + pan
製造者 SPXS
バスタイプ Starlink V2M
フェーズステータス In Orbit
所有者/国 SPXS/US

大規模コンステレーション

Loading constellations...